Location: Caltech
(34.1382°N, 118.1253°W)
Time: 05:56:06
(UTC-07:00)

Cosmos 2237 Rocket - Visible Passes

Search period start: 17 October 2017 00:00
Search period end: 27 October 2017 00:00
Orbit: 834 x 851 km, 71.0° (Epoch: 16 October)

Date Brightness Start Highest point End Pass type
(mag) Time Alt. Az. Time Alt. Az. Time Alt. Az.
17 Oct 4.4 21:03:53 10° NNW 21:05:07 17° NNW 21:05:07 17° NNW visible
18 Oct 4.0 20:49:04 10° NNW 20:50:58 22° N 20:50:58 22° N visible
19 Oct 3.6 20:34:15 10° NNW 20:36:54 28° N 20:36:54 28° N visible
20 Oct 3.1 20:19:25 10° NNW 20:22:57 36° N 20:22:57 36° N visible
21 Oct 2.6 20:04:36 10° N 20:09:09 46° NNE 20:09:09 46° NNE visible
21 Oct 4.9 21:50:03 10° WNW 21:51:02 13° WNW 21:51:02 13° WNW visible
22 Oct 2.3 19:49:47 10° N 19:55:19 49° ENE 19:55:32 49° ENE visible
22 Oct 4.7 21:35:04 10° WNW 21:37:26 17° W 21:37:26 17° W visible
23 Oct 2.4 19:34:58 10° N 19:40:28 46° ENE 19:42:12 36° ESE visible
23 Oct 4.4 21:20:06 10° NW 21:24:05 20° W 21:24:08 20° W visible
24 Oct 2.5 19:20:10 10° N 19:25:37 44° ENE 19:29:18 19° SE visible
24 Oct 4.4 21:05:08 10° NW 21:09:17 21° W 21:11:15 18° SW visible
25 Oct 2.6 19:05:22 10° N 19:10:46 42° ENE 19:16:06 10° SE visible
25 Oct 4.4 20:50:11 10° NW 20:54:28 22° W 20:58:43 10° SSW visible
26 Oct 2.6 18:50:34 10° N 18:55:55 40° ENE 19:01:12 10° SE visible
26 Oct 4.3 20:35:14 10° NW 20:39:39 23° W 20:44:01 10° SSW visible
